Tracking 27405 objects as of 1-Jun-2023
HD Live streaming from Space Station
objects crossing your sky now

ICEYE-X16

Track ICEYE-X16 now!
10-day predictions


NORAD ID: 51008
Int'l Code: 2022-002AA
Perigee: 498.4 km
Apogee: 508.3 km
Inclination: 97.4 °
Period: 94.5 minutes
Semi major axis: 6874 km
RCS: Unknown
Launch date: January 13, 2022
Source: (FIN)
Launch site: AIR FORCE EASTERN TEST RANGE (AFETR)
Your satellite tracking list
Your tracking list is empty




NASA's NSSDC Master Catalog

Two Line Element Set (TLE):
1 51008U 22002AA  23152.17874894  .00016407  00000-0  69510-3 0  9993
2 51008  97.4399 219.2577 0007192 292.1744  67.8729 15.23206909 76300
Source of the keplerian elements: AFSPC